[[{"header":{"parameterUnit":"m.s-1","parameterCategory":2,"la1":30.2991,"la2":30.254,"lo1":-89.0895,"lo2":-89.0444,"dy":0.0017,"dx":0.0017,"nx":28,"ny":28,"refTime":"2025-05-17T03:00:00:Z","depth":"0","parameterNumber":2,"parameterNumberName":"U-component_of_CURRENTS"},"data":[0,0,0,0,0,0,0,0,0,0,0,0,0,0,0,0,0,0,0,0,0,0,0,0,0,0,0,0,0,0,0,0,0,0,0,0,0,0,0,0,0,0,0,0,0,0,0,0,0,0,0,0,0,0,0,0,0,0,0.1738,0.1739,0,0.1878,0.188,0.1881,0.1905,0.1904,0.1903,0.1902,0.1971,0.1973,0.1976,0,0,0,0,0,0,0,0,0,0,0,0,0,0.1498,0.1502,0.1738,0.174,0.1742,0.1878,0.188,0.1882,0.1905,0.1904,0.1903,0.1902,0.197,0.1973,0.1976,0,0,0,0,0,0,0,0,0,0,0,0,0,0.1615,0.1504,0.1737,0.1771,0.1776,0.1878,0.188,0.1882,0.1906,0.1904,0.1903,0.1901,0.1969,0.1973,0.1977,0.2033,0,0,0.199,0.1991,0,0,0,0,0,0,0,0,0.1608,0.1623,0.1764,0.1769,0.1775,0.1874,0.1821,0.193,0.1906,0.1854,0.1902,0.19,0.1934,0.1941,0.1969,0.2036,0.2039,0.199,0.1992,0.1994,0.1995,0,0,0,0,0,0,0,0.16,0.1618,0.1791,0.1767,0.1773,0.1783,0.1797,0.1842,0.1898,0.1859,0.1861,0.1881,0.1936,0.1965,0.1971,0.204,0.199,0.1994,0.1996,0.1998,0.2111,0.2112,0,0,0,0,0,0,0.1589,0.1611,0.1787,0.1796,0.1688,0.1788,0.1805,0.1842,0.1899,0.1908,0.1882,0.1881,0.1959,0.1966,0.1973,0.1998,0.1994,0.1998,0.2001,0.2111,0.2111,0.2112,0,0,0,0,0,0,0.1584,0.1604,0.1781,0.1706,0.1729,0.1794,0.1836,0.1846,0.1868,0.1918,0.1924,0.1893,0.1958,0.1967,0.2006,0.2002,0.2,0.2004,0.211,0.2111,0.2112,0.2076,0,0,0,0,0,0,0.1577,0.1602,0.1624,0.1706,0.1734,0.1839,0.1838,0.185,0.1884,0.1884,0.193,0.1936,0.1957,0.1999,0.201,0.2008,0.2007,0.2109,0.211,0.2111,0.2077,0.2076,0.2075,0,0,0,0,0,0.1568,0.1611,0.1624,0.1646,0.1763,0.184,0.1855,0.1893,0.1886,0.1905,0.1928,0.1934,0.2012,0.2004,0.2016,0.2015,0.2109,0.211,0.2111,0.2077,0.2076,0.2075,0,0,0,0,0,0,0.1516,0.162,0.1636,0.1707,0.1764,0.1845,0.1874,0.1892,0.193,0.1925,0.1952,0.1961,0.1991,0.2015,0.2004,0.2051,0.2058,0.2062,0.2028,0.2027,0.2026,0.2033,0.201,0,0,0,0,0,0.1516,0.1577,0.166,0.1714,0.1744,0.1804,0.1838,0.1865,0.1912,0.1927,0.1956,0.1984,0.2011,0.2025,0.2062,0.2095,0.2168,0.21,0.2099,0.2098,0.2112,0.2213,0.2223,0.2116,0.2116,0.2116,0,0,0.151,0.1576,0.1608,0.1706,0.1754,0.1804,0.182,0.1878,0.1903,0.1929,0.1966,0.1989,0.2021,0.2053,0.2068,0.2068,0.2173,0.2099,0.2098,0.2113,0.2215,0.2226,0.2235,0.2117,0.2116,0.2116,0,0,0.1536,0.1586,0.1645,0.1693,0.1771,0.1806,0.1818,0.1893,0.1908,0.1955,0.1967,0.1989,0.2043,0.206,0.2074,0.2094,0.2167,0.2099,0.2097,0.2193,0.2203,0.2213,0.2346,0.2368,0.2093,0.2093,0.2093,0,0.1516,0.1607,0.1668,0.1729,0.1761,0.1801,0.1846,0.1877,0.1948,0.1962,0.1959,0.2034,0.2047,0.2083,0.2077,0.2091,0.2179,0.2093,0.2193,0.2204,0.2215,0.2348,0.2373,0.2092,0.2092,0.2092,0.2092,0,0.1595,0.1648,0.1683,0.1767,0.1805,0.1852,0.1898,0.1925,0.1936,0.1966,0.2008,0.2039,0.2082,0.2077,0.2079,0.2145,0.2197,0.2184,0.2195,0.2223,0.2363,0.2389,0.2089,0.209,0.209,0.2091,0,0,0.1591,0.1712,0.172,0.1751,0.1825,0.1865,0.1896,0.1943,0.1967,0.2006,0.2052,0.2066,0.2084,0.2102,0.2111,0.2174,0.2309,0.2205,0.2211,0.2338,0.2574,0.2596,0.2628,0.2321,0.2325,0.2328,0.2652,0,0.1623,0.1725,0.1776,0.1834,0.1879,0.1908,0.1934,0.1972,0.2001,0.2055,0.2075,0.2126,0.2093,0.212,0.2174,0.2286,0.2373,0.2226,0.2529,0.2539,0.2554,0.2656,0.2571,0.2851,0.2678,0.2682,0.2685,0,0.1686,0.1739,0.1809,0.1866,0.1887,0.1915,0.1958,0.1993,0.2055,0.2084,0.213,0.2169,0.2256,0.2225,0.2441,0.2359,0.2465,0.2546,0.2561,0.2612,0.2609,0.2791,0.2906,0.2792,0.2726,0.2723,0.272,0,0.1668,0.1758,0.1805,0.1829,0.1901,0.1917,0.1944,0.1997,0.2036,0.2118,0.2181,0.2267,0.2361,0.2482,0.2627,0.2562,0.2899,0.2831,0.2961,0.2966,0.2969,0.2967,0.3006,0.3001,0.3,0.2999,0.2998,0,0.1694,0.1728,0.1798,0.1822,0.1858,0.1907,0.195,0.1989,0.2071,0.215,0.2199,0.2309,0.2434,0.2619,0.2712,0.295,0.2981,0.3009,0.3058,0.2956,0.2949,0.2908,0.2795,0.3011,0.3009,0.3006,0.3004,0,0.1684,0.1736,0.1784,0.1842,0.1859,0.1883,0.1956,0.2002,0.2078,0.2199,0.224,0.2408,0.2653,0.2801,0.3055,0.3096,0.3204,0.3354,0.3244,0.3272,0.3224,0.3112,0.3155,0.3062,0.3555,0.3558,0.356,0,0.1703,0.173,0.1784,0.1813,0.184,0.1882,0.1923,0.1992,0.2065,0.2269,0.2353,0.2604,0.2775,0.3161,0.3306,0.3533,0.3352,0.3563,0.3383,0.3253,0.3165,0.2995,0.2897,0.3403,0.3403,0.3404,0.3404,0,0.1717,0.1729,0.1766,0.1822,0.1864,0.1906,0.198,0.2034,0.2156,0.2272,0.2487,0.2636,0.3002,0.3197,0.3475,0.3578,0.3352,0.3581,0.3472,0.3082,0.2875,0.2798,0.3179,0.341,0.3409,0.3409,0.3408,0.3408,0.1725,0.1747,0.1801,0.1848,0.1892,0.1944,0.1962,0.2068,0.2178,0.2343,0.2529,0.2723,0.3008,0.3379,0.3478,0.3539,0.3438,0.3444,0.3345,0.3207,0.3009,0.3418,0.3661,0.3662,0.3662,0.3663,0.3664,0,0.1752,0.1786,0.1834,0.1884,0.1914,0.1939,0.2016,0.2031,0.2138,0.2322,0.2482,0.2762,0.2978,0.3182,0.3355,0.3291,0.3147,0.3205,0.2912,0.2845,0.3272,0.3152,0.326,0.326,0.326,0.326,0.326,0.326,0.1779,0.183,0.1851,0.1901,0.1922,0.1932,0.1955,0.1987,0.2082,0.2231,0.2366,0.2532,0.278,0.2997,0.3006,0.2977,0.2715,0.2664,0.2596,0.2845,0.2857,0.2868,0.273,0.2748,0.2747,0.2102,0.2097,0.2093]},{"header":{"parameterUnit":"m.s-1","parameterCategory":2,"la1":30.2991,"la2":30.254,"lo1":-89.0895,"lo2":-89.0444,"dy":0.0017,"dx":0.0017,"nx":28,"ny":28,"refTime":"2025-05-17T03:00:00:Z","depth":"0","parameterNumber":3,"parameterNumberName":"V-component_of_CURRENTS"},"data":[0,0,0,0,0,0,0,0,0,0,0,0,0,0,0,0,0,0,0,0,0,0,0,0,0,0,0,0,0,0,0,0,0,0,0,0,0,0,0,0,0,0,0,0,0,0,0,0,0,0,0,0,0,0,0,0,0,0,-0.0289,-0.029,0,-0.0388,-0.039,-0.0391,-0.0418,-0.0417,-0.0417,-0.0416,-0.0486,-0.0489,-0.0491,0,0,0,0,0,0,0,0,0,0,0,0,0,-0.0161,-0.0163,-0.0289,-0.029,-0.0292,-0.0388,-0.039,-0.0391,-0.0418,-0.0417,-0.0417,-0.0416,-0.0485,-0.0488,-0.0491,0,0,0,0,0,0,0,0,0,0,0,0,0,-0.0233,-0.0163,-0.0289,-0.0317,-0.0321,-0.0388,-0.039,-0.0391,-0.0418,-0.0417,-0.0417,-0.0416,-0.0485,-0.0488,-0.0491,-0.0529,0,0,-0.0502,-0.0504,0,0,0,0,0,0,0,0,-0.0229,-0.0238,-0.0312,-0.0315,-0.032,-0.039,-0.037,-0.0436,-0.0418,-0.0381,-0.0416,-0.0416,-0.0452,-0.0459,-0.0479,-0.0532,-0.0535,-0.0502,-0.0505,-0.0506,-0.0507,0,0,0,0,0,0,0,-0.0224,-0.0234,-0.0328,-0.0313,-0.0318,-0.0338,-0.0347,-0.0383,-0.0419,-0.0384,-0.0386,-0.0398,-0.0454,-0.0475,-0.048,-0.0536,-0.0502,-0.0506,-0.0508,-0.0509,-0.0622,-0.0623,0,0,0,0,0,0,-0.0212,-0.0229,-0.0325,-0.0331,-0.0272,-0.0341,-0.0351,-0.0368,-0.0419,-0.0427,-0.0399,-0.0399,-0.047,-0.0476,-0.0483,-0.0517,-0.0506,-0.0509,-0.0511,-0.0621,-0.0622,-0.0623,0,0,0,0,0,0,-0.0209,-0.022,-0.0321,-0.0282,-0.0297,-0.0344,-0.0363,-0.037,-0.0391,-0.0431,-0.0437,-0.0411,-0.0469,-0.0478,-0.052,-0.052,-0.0511,-0.0514,-0.062,-0.0621,-0.0622,-0.0593,0,0,0,0,0,0,-0.0205,-0.0218,-0.0226,-0.0282,-0.0298,-0.0365,-0.0364,-0.0373,-0.04,-0.0401,-0.0444,-0.045,-0.0469,-0.0515,-0.0524,-0.0525,-0.0517,-0.0619,-0.062,-0.0622,-0.0593,-0.0593,-0.0594,0,0,0,0,0,-0.02,-0.0219,-0.0226,-0.0237,-0.0308,-0.0366,-0.0376,-0.0406,-0.0401,-0.0419,-0.0445,-0.0448,-0.0531,-0.0519,-0.0529,-0.0531,-0.0618,-0.062,-0.0622,-0.0593,-0.0593,-0.0594,0,0,0,0,0,0,-0.0165,-0.0226,-0.0234,-0.0268,-0.0312,-0.037,-0.0392,-0.0407,-0.0443,-0.0441,-0.0467,-0.0476,-0.0515,-0.0532,-0.0518,-0.057,-0.0573,-0.0577,-0.0547,-0.0548,-0.0548,-0.0476,-0.052,0,0,0,0,0,-0.0161,-0.0193,-0.0247,-0.0274,-0.0296,-0.0341,-0.0366,-0.0388,-0.0428,-0.0443,-0.0472,-0.0502,-0.0534,-0.0546,-0.0586,-0.0614,-0.0568,-0.0621,-0.0622,-0.0621,-0.0571,-0.0506,-0.0494,-0.0629,-0.0629,-0.0629,0,0,-0.0152,-0.0191,-0.0207,-0.0269,-0.0304,-0.0337,-0.0355,-0.0398,-0.0411,-0.0445,-0.0475,-0.0513,-0.0546,-0.0581,-0.0598,-0.0591,-0.0567,-0.0624,-0.0623,-0.0572,-0.0506,-0.0492,-0.048,-0.0631,-0.0631,-0.063,0,0,-0.0163,-0.0189,-0.0222,-0.0257,-0.0314,-0.0339,-0.0349,-0.0408,-0.042,-0.0464,-0.0484,-0.0505,-0.0575,-0.0576,-0.0589,-0.0612,-0.0579,-0.0645,-0.0575,-0.0514,-0.05,-0.0488,-0.0432,-0.0414,-0.0634,-0.0634,-0.0634,0,-0.0147,-0.0189,-0.0239,-0.0278,-0.0287,-0.0335,-0.0351,-0.0384,-0.0445,-0.0428,-0.047,-0.0511,-0.0558,-0.054,-0.056,-0.0605,-0.0566,-0.057,-0.0508,-0.0494,-0.0481,-0.0427,-0.0408,-0.0632,-0.0633,-0.0633,-0.0633,0,-0.0188,-0.0209,-0.0231,-0.0283,-0.0306,-0.0329,-0.0369,-0.0384,-0.0401,-0.0414,-0.0415,-0.0472,-0.0468,-0.0515,-0.055,-0.0491,-0.0492,-0.0522,-0.0492,-0.0465,-0.0411,-0.0391,-0.0631,-0.0631,-0.0632,-0.0632,0,0,-0.0169,-0.0239,-0.0244,-0.0233,-0.0295,-0.0304,-0.0323,-0.032,-0.0277,-0.0346,-0.0278,-0.0363,-0.0358,-0.037,-0.0411,-0.0375,-0.0293,-0.0407,-0.0404,-0.0323,-0.0147,-0.0178,-0.016,-0.0308,-0.0304,-0.0301,-0.0151,0,-0.017,-0.0206,-0.0247,-0.0241,-0.0242,-0.0264,-0.0257,-0.0258,-0.0258,-0.0216,-0.0237,-0.0216,-0.0314,-0.0296,-0.0279,-0.0277,-0.0236,-0.0329,-0.0207,-0.0202,-0.021,-0.0136,-0.0169,-0.004,-0.0131,-0.0128,-0.0126,0,-0.0189,-0.0195,-0.0191,-0.0162,-0.0161,-0.016,-0.0091,-0.0096,-0.0058,-0.0051,-0.0022,-0.0038,0.0007,-0.0088,-0.0024,-0.0076,-0.0097,-0.011,-0.0105,-0.0113,-0.0195,-0.0081,-0.0,-0.0202,-0.0095,-0.0097,-0.01,0,-0.0117,-0.0141,-0.0111,-0.0113,-0.011,-0.0074,-0.0059,-0.0027,0.0026,0.0084,0.0154,0.0169,0.0228,0.0207,0.0153,0.0087,0.0232,0.0137,0.0095,0.0091,0.0104,0.0095,0.0038,0.0203,0.0203,0.0203,0.0202,0,-0.0085,-0.0056,-0.0065,-0.0042,0.004,0.0013,0.0111,0.0129,0.0201,0.0323,0.0268,0.039,0.0311,0.0359,0.0265,0.0269,0.033,0.0159,0.0149,0.0104,0.0094,-0.005,-0.0163,0.0208,0.0207,0.0206,0.0205,0,-0.0008,-0.0034,0.0024,0.0055,0.0073,0.0142,0.0217,0.0299,0.0346,0.0517,0.0558,0.0615,0.0685,0.059,0.0588,0.0452,0.0334,0.0394,0.034,0.0321,0.005,-0.006,-0.0006,-0.0071,0.0388,0.0389,0.0389,0,0.0029,0.0057,0.0117,0.0173,0.0195,0.0275,0.0342,0.0376,0.0485,0.0678,0.0801,0.0899,0.1006,0.0967,0.0747,0.0615,0.042,0.0457,0.0307,0.0079,-0.0049,-0.0102,-0.0166,0.0328,0.0328,0.0328,0.0328,0,0.0137,0.0154,0.0211,0.0315,0.0394,0.0487,0.0596,0.0702,0.0803,0.0957,0.1201,0.1303,0.1244,0.1117,0.0874,0.0724,0.0313,0.0448,0.0247,-0.005,-0.0135,-0.0219,0.0169,0.0327,0.0327,0.0327,0.0327,0.0327,0.0242,0.0313,0.0387,0.0491,0.0584,0.0735,0.0842,0.0981,0.1182,0.1447,0.1501,0.1664,0.1377,0.1051,0.0823,0.0302,0.0337,0.0114,0.0021,0.0005,-0.0121,0.026,0.0368,0.0368,0.0369,0.0369,0.0369,0,0.0391,0.0457,0.0561,0.0705,0.0838,0.0841,0.1043,0.117,0.1435,0.1633,0.1823,0.174,0.138,0.0943,0.0284,-0.0072,-0.0205,-0.0278,-0.0389,-0.0419,-0.0047,-0.0123,-0.0157,-0.0157,-0.0157,-0.0157,-0.0156,-0.0156,0.0487,0.0617,0.0661,0.0908,0.1006,0.1193,0.1312,0.1503,0.1656,0.1901,0.1962,0.1979,0.1563,0.0441,-0.035,-0.0524,-0.077,-0.0792,-0.0888,-0.0719,-0.0691,-0.0665,-0.0766,-0.0934,-0.0935,-0.1229,-0.1233,-0.1235]}],[{"header":{"parameterUnit":"m.s-1","parameterCategory":2,"la1":30.2991,"la2":30.254,"lo1":-89.0895,"lo2":-89.0444,"dy":0.0017,"dx":0.0017,"nx":28,"ny":28,"refTime":"2025-05-17T03:00:00:Z","depth":"2","parameterNumber":2,"parameterNumberName":"U-component_of_CURRENTS"},"data":[0,0,0,0,0,0,0,0,0,0,0,0,0,0,0,0,0,0,0,0,0,0,0,0,0,0,0,0,0,0,0,0,0,0,0,0,0,0,0,0,0,0,0,0,0,0,0,0,0,0,0,0,0,0,0,0,0,0,0.1405,0.1404,0,0.1306,0.1305,0.1304,0.1327,0.1329,0.1331,0.1333,0.1344,0.1343,0.1342,0,0,0,0,0,0,0,0,0,0,0,0,0,0.1389,0.1391,0.1406,0.1404,0.1403,0.1306,0.1305,0.1303,0.1327,0.1329,0.1332,0.1334,0.1345,0.1343,0.1341,0,0,0,0,0,0,0,0,0,0,0,0,0,0.1355,0.1392,0.1406,0.1403,0.1402,0.1306,0.1305,0.1303,0.1327,0.1329,0.1332,0.1335,0.1345,0.1343,0.1341,0.1271,0,0,0.1334,0.1333,0,0,0,0,0,0,0,0,0.1357,0.1355,0.1405,0.1403,0.1401,0.1332,0.1303,0.1298,0.1326,0.1355,0.1333,0.1336,0.1348,0.1346,0.132,0.1271,0.1272,0.1334,0.1333,0.1332,0.1331,0,0,0,0,0,0,0,0.136,0.1358,0.1366,0.1403,0.1401,0.1329,0.1329,0.13,0.1339,0.1353,0.1354,0.1342,0.1349,0.1321,0.132,0.1272,0.1334,0.1332,0.1331,0.133,0.1287,0.1287,0,0,0,0,0,0,0.138,0.1362,0.1369,0.1363,0.1385,0.1328,0.1328,0.1351,0.1337,0.1337,0.134,0.1343,0.1324,0.1323,0.1321,0.1342,0.1332,0.133,0.1329,0.1286,0.1287,0.1287,0,0,0,0,0,0,0.1381,0.1383,0.1373,0.1357,0.1351,0.1327,0.1351,0.1348,0.1353,0.1326,0.1328,0.1353,0.1326,0.1324,0.1318,0.1339,0.1329,0.1327,0.1286,0.1287,0.1287,0.1316,0,0,0,0,0,0,0.1382,0.1385,0.1407,0.1361,0.1353,0.1326,0.1348,0.1344,0.1339,0.1344,0.1337,0.1339,0.1328,0.1321,0.1315,0.1336,0.1325,0.1286,0.1286,0.1287,0.1315,0.1318,0.132,0,0,0,0,0,0.1382,0.1385,0.141,0.141,0.1388,0.1325,0.1314,0.1304,0.1338,0.1324,0.1333,0.1341,0.132,0.1318,0.1312,0.1333,0.1286,0.1286,0.1287,0.1314,0.1317,0.132,0,0,0,0,0,0,0.1374,0.1387,0.1413,0.1421,0.1387,0.133,0.1309,0.1315,0.1306,0.1325,0.1325,0.1325,0.1327,0.132,0.1318,0.1322,0.1311,0.131,0.1334,0.1336,0.1339,0.1417,0.1323,0,0,0,0,0,0.1389,0.1416,0.1392,0.14,0.1385,0.1358,0.1336,0.1331,0.1312,0.1312,0.1313,0.1318,0.1313,0.132,0.13,0.1293,0.1364,0.1308,0.131,0.1312,0.1371,0.1489,0.151,0.1288,0.1288,0.1288,0,0,0.139,0.1398,0.1415,0.1402,0.1378,0.1348,0.1352,0.1318,0.1317,0.1313,0.132,0.1315,0.1309,0.1303,0.1307,0.131,0.1404,0.1313,0.1314,0.1374,0.1492,0.1515,0.1535,0.1288,0.1288,0.1288,0,0,0.137,0.1411,0.1413,0.1391,0.1361,0.1342,0.1345,0.1307,0.1317,0.1303,0.1316,0.1341,0.1308,0.133,0.1333,0.1337,0.1402,0.1324,0.1411,0.1523,0.1544,0.1563,0.1657,0.1685,0.1337,0.1337,0.1337,0,0.1367,0.139,0.1392,0.137,0.1368,0.1352,0.1339,0.132,0.1294,0.1336,0.1315,0.1363,0.1332,0.1396,0.1391,0.1348,0.1427,0.1398,0.1532,0.1553,0.1573,0.1664,0.1694,0.1339,0.1339,0.1338,0.1338,0,0.1344,0.1362,0.1347,0.1353,0.1337,0.1318,0.1304,0.1315,0.1338,0.1354,0.1422,0.14,0.1467,0.143,0.1406,0.153,0.1543,0.1512,0.1536,0.1598,0.1688,0.1719,0.1341,0.134,0.134,0.134,0,0,0.1361,0.1342,0.1348,0.137,0.1343,0.1338,0.1343,0.1377,0.1456,0.1442,0.1557,0.1534,0.1595,0.1606,0.1597,0.1673,0.1827,0.1665,0.167,0.1779,0.2096,0.1984,0.2007,0.1837,0.1843,0.1848,0.2095,0,0.1355,0.134,0.1335,0.135,0.1351,0.1366,0.1398,0.1436,0.1479,0.1572,0.1613,0.1684,0.164,0.1691,0.1773,0.18,0.1917,0.1764,0.2005,0.2012,0.1924,0.2043,0.1788,0.1978,0.2126,0.2131,0.2135,0,0.1351,0.1356,0.1366,0.1419,0.1428,0.1452,0.1574,0.1588,0.1699,0.1743,0.1855,0.1885,0.1996,0.1937,0.213,0.2045,0.2114,0.2132,0.2142,0.2068,0.1961,0.1944,0.203,0.2188,0.2184,0.218,0.2176,0,0.1397,0.1394,0.1429,0.1435,0.1471,0.1538,0.1582,0.1681,0.1732,0.1878,0.1948,0.2096,0.217,0.2288,0.2323,0.2262,0.253,0.2439,0.2426,0.2418,0.2267,0.2234,0.2651,0.265,0.265,0.2649,0.2648,0,0.1407,0.1444,0.1476,0.15,0.1601,0.1618,0.1745,0.1808,0.1916,0.2008,0.2073,0.2187,0.227,0.2397,0.2437,0.2539,0.2647,0.2506,0.2501,0.2259,0.2225,0.2451,0.2425,0.2658,0.2656,0.2654,0.2653,0,0.1449,0.1447,0.1512,0.1589,0.1618,0.171,0.1797,0.188,0.1983,0.2105,0.215,0.2296,0.246,0.2537,0.2712,0.2668,0.2763,0.2786,0.2482,0.2436,0.2552,0.2524,0.2807,0.2806,0.2804,0.2804,0.2803,0,0.1465,0.1501,0.1589,0.1621,0.1666,0.1768,0.1824,0.1915,0.1982,0.2169,0.2234,0.2426,0.2538,0.2738,0.2697,0.2777,0.2855,0.2591,0.2409,0.2616,0.2583,0.2555,0.2529,0.2221,0.2215,0.2211,0.2207,0,0.1517,0.1567,0.1607,0.1677,0.1746,0.1801,0.1893,0.1945,0.2057,0.2166,0.2351,0.2455,0.2588,0.2528,0.2572,0.2573,0.2533,0.2499,0.2874,0.2185,0.2074,0.2035,0.2028,0.2167,0.2171,0.2174,0.2176,0.2178,0.1574,0.1617,0.1663,0.1726,0.1783,0.1835,0.1854,0.1937,0.2042,0.2137,0.2325,0.2352,0.2328,0.2233,0.2232,0.22,0.2348,0.2229,0.2239,0.2256,0.2109,0.1997,0.2051,0.2054,0.2057,0.2059,0.2061,0,0.1603,0.1636,0.1689,0.1743,0.1763,0.1819,0.1876,0.1851,0.1928,0.2013,0.2124,0.1882,0.1856,0.1882,0.1737,0.1733,0.1684,0.1707,0.1617,0.1657,0.1692,0.1513,0.13,0.1298,0.1296,0.1295,0,0,0.1621,0.1643,0.1653,0.1684,0.1726,0.173,0.174,0.1717,0.1716,0.1659,0.1607,0.1723,0.1748,0.145,0.1445,0.1366,0.1502,0.1317,0.192,0.1849,0.1882,0.1979,0.1747,0,0,0,0,0]},{"header":{"parameterUnit":"m.s-1","parameterCategory":2,"la1":30.2991,"la2":30.254,"lo1":-89.0895,"lo2":-89.0444,"dy":0.0017,"dx":0.0017,"nx":28,"ny":28,"refTime":"2025-05-17T03:00:00:Z","depth":"2","parameterNumber":3,"parameterNumberName":"V-component_of_CURRENTS"},"data":[0,0,0,0,0,0,0,0,0,0,0,0,0,0,0,0,0,0,0,0,0,0,0,0,0,0,0,0,0,0,0,0,0,0,0,0,0,0,0,0,0,0,0,0,0,0,0,0,0,0,0,0,0,0,0,0,0,0,-0.0569,-0.0571,0,-0.0685,-0.0686,-0.0686,-0.0721,-0.0721,-0.0721,-0.0721,-0.081,-0.0813,-0.0815,0,0,0,0,0,0,0,0,0,0,0,0,0,-0.0359,-0.0363,-0.0569,-0.0571,-0.0573,-0.0685,-0.0686,-0.0686,-0.0721,-0.0721,-0.0721,-0.0721,-0.081,-0.0812,-0.0815,0,0,0,0,0,0,0,0,0,0,0,0,0,-0.0453,-0.0364,-0.0569,-0.0609,-0.0615,-0.0685,-0.0686,-0.0687,-0.0721,-0.0721,-0.0721,-0.0722,-0.0809,-0.0812,-0.0815,-0.0834,0,0,-0.0826,-0.0827,0,0,0,0,0,0,0,0,-0.0448,-0.046,-0.0601,-0.0607,-0.0613,-0.0695,-0.0645,-0.0737,-0.0721,-0.0673,-0.0721,-0.0722,-0.0774,-0.078,-0.0792,-0.0838,-0.0842,-0.0826,-0.0828,-0.083,-0.0831,0,0,0,0,0,0,0,-0.0442,-0.0455,-0.0608,-0.0604,-0.0611,-0.0616,-0.0629,-0.0662,-0.0715,-0.0677,-0.0682,-0.0706,-0.0776,-0.0788,-0.0794,-0.0844,-0.0826,-0.0829,-0.0831,-0.0833,-0.0916,-0.0917,0,0,0,0,0,0,-0.0443,-0.045,-0.0604,-0.0612,-0.0537,-0.062,-0.0634,-0.0663,-0.0716,-0.0726,-0.0706,-0.0708,-0.0782,-0.079,-0.0797,-0.0841,-0.083,-0.0833,-0.0835,-0.0916,-0.0916,-0.0917,0,0,0,0,0,0,-0.0438,-0.0456,-0.0599,-0.0538,-0.0558,-0.0625,-0.0656,-0.0665,-0.0685,-0.0739,-0.0748,-0.0718,-0.0783,-0.0793,-0.0826,-0.0844,-0.0835,-0.0838,-0.0916,-0.0916,-0.0917,-0.0916,0,0,0,0,0,0,-0.0432,-0.0454,-0.0463,-0.0539,-0.0562,-0.0642,-0.0657,-0.0667,-0.0703,-0.0706,-0.0753,-0.0761,-0.0784,-0.082,-0.0829,-0.0848,-0.084,-0.0916,-0.0916,-0.0916,-0.0915,-0.0916,-0.0916,0,0,0,0,0,-0.0424,-0.0463,-0.0462,-0.0481,-0.0577,-0.0644,-0.0655,-0.0697,-0.0704,-0.0713,-0.074,-0.0759,-0.0829,-0.0823,-0.0834,-0.0854,-0.0916,-0.0916,-0.0916,-0.0915,-0.0916,-0.0916,0,0,0,0,0,0,-0.0378,-0.0473,-0.0474,-0.0537,-0.0578,-0.0652,-0.0682,-0.0698,-0.0727,-0.0734,-0.0764,-0.0774,-0.0809,-0.0828,-0.0821,-0.0877,-0.0875,-0.0877,-0.087,-0.0871,-0.0871,-0.0814,-0.0843,0,0,0,0,0,-0.037,-0.042,-0.049,-0.0532,-0.0562,-0.0612,-0.0642,-0.067,-0.0715,-0.0728,-0.0761,-0.0792,-0.0818,-0.084,-0.0867,-0.0901,-0.0873,-0.0919,-0.0919,-0.092,-0.0879,-0.0837,-0.0829,-0.0918,-0.0918,-0.0918,0,0,-0.0359,-0.0421,-0.0444,-0.0524,-0.0566,-0.0607,-0.063,-0.0688,-0.0708,-0.0734,-0.0772,-0.0797,-0.0825,-0.0861,-0.0879,-0.0881,-0.0888,-0.092,-0.092,-0.0878,-0.0836,-0.0827,-0.0819,-0.0918,-0.0918,-0.0918,0,0,-0.0385,-0.0422,-0.0474,-0.0509,-0.0582,-0.0613,-0.0627,-0.0698,-0.0716,-0.0757,-0.0772,-0.0791,-0.0857,-0.0863,-0.0878,-0.0893,-0.0888,-0.092,-0.0883,-0.0845,-0.0836,-0.0828,-0.0814,-0.0804,-0.0925,-0.0925,-0.0925,0,-0.036,-0.0435,-0.0492,-0.0546,-0.057,-0.0613,-0.0646,-0.0677,-0.0741,-0.073,-0.0772,-0.0798,-0.085,-0.0837,-0.0859,-0.0892,-0.087,-0.0884,-0.0842,-0.0833,-0.0825,-0.0812,-0.0801,-0.0925,-0.0925,-0.0925,-0.0925,0,-0.0431,-0.0467,-0.0506,-0.0575,-0.0601,-0.0644,-0.0688,-0.0702,-0.073,-0.074,-0.0739,-0.0787,-0.0775,-0.0828,-0.0862,-0.0827,-0.0833,-0.0845,-0.0836,-0.0815,-0.0805,-0.0793,-0.0925,-0.0925,-0.0925,-0.0925,0,0,-0.0425,-0.053,-0.0539,-0.0533,-0.0615,-0.0628,-0.0662,-0.0671,-0.0625,-0.0698,-0.0634,-0.0724,-0.0701,-0.0711,-0.0743,-0.0746,-0.072,-0.0775,-0.0774,-0.0751,-0.0641,-0.0759,-0.0758,-0.072,-0.0718,-0.0715,-0.0669,0,-0.0449,-0.0525,-0.058,-0.0591,-0.061,-0.0631,-0.0623,-0.0624,-0.0625,-0.0573,-0.0605,-0.0568,-0.0669,-0.064,-0.0658,-0.0684,-0.0684,-0.0731,-0.067,-0.0668,-0.0767,-0.0747,-0.0662,-0.0622,-0.0658,-0.0657,-0.0655,0,-0.0503,-0.0528,-0.0558,-0.0536,-0.0542,-0.0531,-0.0464,-0.0466,-0.0415,-0.0407,-0.0376,-0.0382,-0.0379,-0.0463,-0.0485,-0.0507,-0.0561,-0.0607,-0.0606,-0.0693,-0.0764,-0.0642,-0.0601,-0.0636,-0.0638,-0.0639,-0.0641,0,-0.045,-0.0504,-0.0505,-0.051,-0.0503,-0.0463,-0.0436,-0.0388,-0.0339,-0.0258,-0.0202,-0.0197,-0.017,-0.0227,-0.0364,-0.0398,-0.0393,-0.0442,-0.0595,-0.0605,-0.0506,-0.0512,-0.043,-0.043,-0.043,-0.043,-0.0431,0,-0.0456,-0.0442,-0.0453,-0.0434,-0.0338,-0.0363,-0.0241,-0.0209,-0.0133,-0.0041,-0.0072,-0.0001,-0.0109,-0.0144,-0.027,-0.0406,-0.0312,-0.0564,-0.0589,-0.0513,-0.0521,-0.0505,-0.0514,-0.0429,-0.0429,-0.0429,-0.043,0,-0.0389,-0.0438,-0.038,-0.0335,-0.0308,-0.0211,-0.0119,-0.0036,0.0021,0.0143,0.0176,0.0173,0.0109,-0.0031,-0.0127,-0.0288,-0.0402,-0.0472,-0.0405,-0.0426,-0.066,-0.0669,-0.061,-0.0614,-0.0617,-0.0619,-0.0621,0,-0.0371,-0.0344,-0.0261,-0.0208,-0.0171,-0.006,0.001,0.0062,0.0133,0.0239,0.0301,0.0286,0.0228,0.0024,-0.0166,-0.0375,-0.0435,-0.0495,-0.0568,-0.0642,-0.0671,-0.0677,-0.0683,-0.0432,-0.0433,-0.0433,-0.0433,0,-0.0264,-0.0227,-0.0171,-0.0077,0.001,0.0107,0.0201,0.0267,0.0322,0.0385,0.0457,0.0421,0.0265,0.0075,-0.0239,-0.0378,-0.0465,-0.0518,-0.0527,-0.0447,-0.0483,-0.0511,-0.0519,-0.0436,-0.0435,-0.0435,-0.0435,-0.0435,-0.0153,-0.0085,-0.0038,0.0046,0.0147,0.0232,0.0286,0.0344,0.0421,0.05,0.0518,0.0491,0.0322,-0.0059,-0.0267,-0.0465,-0.0508,-0.0615,-0.0608,-0.0602,-0.0637,-0.0681,-0.0677,-0.0678,-0.0679,-0.0679,-0.068,0,-0.0071,-0.0037,0.0055,0.0127,0.0199,0.026,0.0362,0.0386,0.0417,0.056,0.0575,0.0447,0.0207,0.0023,-0.0254,-0.0512,-0.0461,-0.0601,-0.0461,-0.0459,-0.0457,-0.0479,-0.048,-0.0479,-0.0479,-0.0479,0,0,-0.0027,0.0013,0.0017,0.0103,0.018,0.027,0.0318,0.0382,0.0476,0.0561,0.0615,0.0596,0.0332,0.0161,-0.0122,-0.0284,-0.0316,-0.0318,-0.0456,-0.0254,-0.0248,-0.0448,-0.0481,0,0,0,0,0]}],[{"header":{"parameterUnit":"m.s-1","parameterCategory":2,"la1":30.2991,"la2":30.254,"lo1":-89.0895,"lo2":-89.0444,"dy":0.0017,"dx":0.0017,"nx":28,"ny":28,"refTime":"2025-05-17T03:00:00:Z","depth":"4","parameterNumber":2,"parameterNumberName":"U-component_of_CURRENTS"},"data":[0,0,0,0,0,0,0,0,0,0,0,0,0,0,0,0,0,0,0,0,0,0,0,0,0,0,0,0,0,0,0,0,0,0,0,0,0,0,0,0,0,0,0,0,0,0,0,0,0,0,0,0,0,0,0,0,0,0,0.0252,0.0251,0,0.0237,0.0237,0.0236,0.0287,0.0288,0.029,0.0291,0.0364,0.0364,0.0365,0,0,0,0,0,0,0,0,0,0,0,0,0,0.0315,0.0313,0.0252,0.0251,0.0251,0.0237,0.0237,0.0236,0.0286,0.0288,0.029,0.0292,0.0364,0.0364,0.0365,0,0,0,0,0,0,0,0,0,0,0,0,0,0.0293,0.0313,0.0252,0.0273,0.0275,0.0237,0.0237,0.0236,0.0286,0.0288,0.029,0.0292,0.0363,0.0364,0.0365,0.0328,0,0,0.0368,0.0368,0,0,0,0,0,0,0,0,0.0294,0.0291,0.0271,0.0272,0.0274,0.0265,0.0286,0.0271,0.0286,0.0283,0.0291,0.0293,0.0337,0.034,0.0332,0.0332,0.0335,0.0368,0.0369,0.0369,0.0369,0,0,0,0,0,0,0,0.0296,0.0292,0.0247,0.027,0.0272,0.0281,0.0281,0.0283,0.03,0.0283,0.0287,0.0283,0.0339,0.0331,0.0335,0.0336,0.0368,0.0369,0.0369,0.037,0.0433,0.0434,0,0,0,0,0,0,0.0293,0.0293,0.0247,0.0246,0.0288,0.0278,0.0278,0.0266,0.0299,0.0304,0.0281,0.0285,0.0329,0.0334,0.0338,0.0411,0.0369,0.037,0.037,0.0432,0.0433,0.0435,0,0,0,0,0,0,0.0295,0.0289,0.0248,0.0269,0.0265,0.0275,0.0262,0.0265,0.0283,0.0296,0.0304,0.0299,0.0331,0.0336,0.0358,0.041,0.037,0.0371,0.0431,0.0432,0.0434,0.0484,0,0,0,0,0,0,0.0296,0.0289,0.0287,0.0269,0.0263,0.025,0.026,0.0263,0.0275,0.0282,0.0313,0.0321,0.0333,0.0357,0.0359,0.0411,0.0372,0.0429,0.0431,0.0433,0.0481,0.0487,0.0492,0,0,0,0,0,0.0298,0.0283,0.0287,0.0282,0.0257,0.0251,0.025,0.0264,0.0275,0.0288,0.0303,0.0321,0.0373,0.0357,0.036,0.0413,0.0428,0.0431,0.0433,0.0478,0.0486,0.0492,0,0,0,0,0,0,0.0311,0.0285,0.029,0.0269,0.0273,0.026,0.0262,0.027,0.0288,0.0298,0.0315,0.0323,0.0363,0.0371,0.0353,0.0438,0.0412,0.0415,0.0445,0.0452,0.0458,0.0515,0.0373,0,0,0,0,0,0.0309,0.0289,0.0282,0.0267,0.0268,0.0268,0.0268,0.028,0.0286,0.0297,0.0317,0.0343,0.0368,0.0396,0.0408,0.0443,0.0454,0.0485,0.0491,0.0496,0.0544,0.0559,0.0571,0.0443,0.0443,0.0443,0,0,0.0305,0.029,0.0279,0.0268,0.0267,0.0277,0.0275,0.028,0.0305,0.03,0.034,0.0352,0.0375,0.042,0.0443,0.0442,0.0536,0.0499,0.0504,0.055,0.0563,0.0576,0.0587,0.0445,0.0444,0.0444,0,0,0.0289,0.0281,0.0267,0.0275,0.028,0.0285,0.0293,0.0298,0.0324,0.035,0.036,0.0409,0.0432,0.0478,0.05,0.0544,0.0551,0.0548,0.0644,0.0657,0.0668,0.0678,0.0697,0.0709,0.0569,0.0569,0.0569,0,0.0297,0.0274,0.0266,0.0269,0.0282,0.0295,0.0309,0.0328,0.0346,0.0401,0.0378,0.0461,0.0474,0.0561,0.059,0.0564,0.0567,0.0613,0.0665,0.0676,0.0685,0.0703,0.0715,0.0572,0.0571,0.0571,0.0571,0,0.0272,0.0273,0.0268,0.0279,0.0297,0.0307,0.0339,0.0383,0.0415,0.0464,0.0551,0.055,0.0621,0.0628,0.063,0.0721,0.0698,0.0652,0.0649,0.0701,0.0716,0.0728,0.0576,0.0575,0.0574,0.0573,0,0,0.0242,0.0251,0.0251,0.0282,0.0309,0.0329,0.0389,0.0475,0.0558,0.0592,0.0684,0.0745,0.0775,0.0802,0.0796,0.0832,0.089,0.0791,0.079,0.0815,0.0926,0.0845,0.0849,0.0841,0.0844,0.0846,0.0906,0,0.0234,0.0241,0.0252,0.0299,0.0318,0.038,0.0452,0.0546,0.0614,0.0706,0.0766,0.0828,0.0826,0.0847,0.0892,0.0876,0.0926,0.088,0.0871,0.0873,0.0796,0.0862,0.0854,0.0914,0.0917,0.0919,0.092,0,0.0203,0.0223,0.0254,0.0349,0.037,0.0431,0.058,0.0635,0.0787,0.0837,0.0932,0.095,0.1033,0.0975,0.1044,0.1009,0.1004,0.099,0.0989,0.0918,0.0814,0.0854,0.0941,0.0939,0.0938,0.0936,0.0935,0,0.0181,0.0228,0.0263,0.0287,0.0394,0.0483,0.0565,0.0721,0.0788,0.0914,0.0965,0.1059,0.1082,0.1095,0.1095,0.1064,0.114,0.1071,0.1009,0.1002,0.1034,0.1023,0.1139,0.1139,0.1139,0.1139,0.1138,0,0.016,0.0191,0.0281,0.0311,0.0424,0.0509,0.0648,0.0747,0.0871,0.0961,0.1032,0.1056,0.1112,0.115,0.1133,0.1121,0.1171,0.1066,0.1025,0.105,0.104,0.1041,0.1029,0.1141,0.114,0.114,0.114,0,0.0123,0.0159,0.0219,0.0357,0.0414,0.0505,0.0665,0.0752,0.0881,0.0973,0.0998,0.1083,0.1112,0.1169,0.1187,0.1163,0.1145,0.113,0.1191,0.1145,0.0991,0.0981,0.1062,0.106,0.1058,0.1057,0.1056,0,0.0097,0.0124,0.0242,0.0289,0.0366,0.05,0.0589,0.0738,0.0791,0.0955,0.0964,0.1059,0.1101,0.1086,0.1123,0.1132,0.1112,0.1128,0.1056,0.1039,0.099,0.0982,0.0975,0.1053,0.1052,0.1052,0.1051,0,0.0072,0.0114,0.0164,0.0256,0.0354,0.0431,0.056,0.0588,0.0745,0.0869,0.0913,0.0958,0.1007,0.1009,0.1065,0.1045,0.1124,0.1109,0.1111,0.1043,0.1027,0.098,0.0974,0.1045,0.1046,0.1047,0.1047,0,0.0052,0.007,0.0132,0.022,0.0301,0.0346,0.0424,0.0502,0.0579,0.0771,0.0764,0.0871,0.097,0.0962,0.0973,0.0996,0.0961,0.0935,0.0946,0.0953,0.0891,0.0854,0.0818,0,0,0,0,0,0.0033,0.0042,0.0096,0.0171,0.0237,0.0294,0.0388,0.0455,0.0603,0.0617,0.0705,0.0739,0.0804,0.0816,0.0813,0.0895,0.0948,0.0888,0.0918,0.1011,0.1018,0.0955,0,0,0,0,0,0,0.0012,0.0043,0.0067,0.0107,0.0148,0.0216,0.0267,0.0368,0.0365,0.0524,0.0528,0.0696,0.0719,0.0801,0.0797,0.0816,0.082,0.0966,0.0964,0.1007,0.1013,0.1019,0.0956,0,0,0,0,0]},{"header":{"parameterUnit":"m.s-1","parameterCategory":2,"la1":30.2991,"la2":30.254,"lo1":-89.0895,"lo2":-89.0444,"dy":0.0017,"dx":0.0017,"nx":28,"ny":28,"refTime":"2025-05-17T03:00:00:Z","depth":"4","parameterNumber":3,"parameterNumberName":"V-component_of_CURRENTS"},"data":[0,0,0,0,0,0,0,0,0,0,0,0,0,0,0,0,0,0,0,0,0,0,0,0,0,0,0,0,0,0,0,0,0,0,0,0,0,0,0,0,0,0,0,0,0,0,0,0,0,0,0,0,0,0,0,0,0,0,0.0281,0.0281,0,0.031,0.031,0.031,0.0318,0.0318,0.0317,0.0317,0.0288,0.0287,0.0286,0,0,0,0,0,0,0,0,0,0,0,0,0,0.0186,0.0188,0.0281,0.0281,0.0282,0.031,0.031,0.031,0.0318,0.0318,0.0317,0.0317,0.0288,0.0287,0.0286,0,0,0,0,0,0,0,0,0,0,0,0,0,0.0221,0.0189,0.0281,0.029,0.0291,0.031,0.031,0.031,0.0318,0.0318,0.0317,0.0317,0.0288,0.0287,0.0286,0.028,0,0,0.0282,0.0282,0,0,0,0,0,0,0,0,0.0219,0.0224,0.0288,0.0289,0.0291,0.0312,0.0266,0.0298,0.0318,0.0306,0.0317,0.0317,0.0291,0.029,0.0294,0.0278,0.0277,0.0282,0.0282,0.0281,0.0281,0,0,0,0,0,0,0,0.0217,0.0223,0.029,0.0289,0.029,0.0278,0.0283,0.0272,0.0296,0.0307,0.0308,0.0314,0.0291,0.0295,0.0293,0.0276,0.0282,0.0281,0.0281,0.028,0.0271,0.0271,0,0,0,0,0,0,0.022,0.0221,0.029,0.0292,0.0256,0.028,0.0285,0.0304,0.0297,0.0297,0.0314,0.0314,0.0297,0.0294,0.0292,0.0313,0.0281,0.028,0.0279,0.027,0.0271,0.0271,0,0,0,0,0,0,0.0218,0.0226,0.0288,0.0257,0.0265,0.0282,0.0302,0.0304,0.0317,0.0304,0.0302,0.0325,0.0297,0.0294,0.0302,0.0311,0.0279,0.0278,0.027,0.027,0.0271,0.0337,0,0,0,0,0,0,0.0215,0.0225,0.0242,0.0258,0.0267,0.0312,0.0302,0.0305,0.0321,0.0322,0.0313,0.031,0.0297,0.0305,0.0301,0.0309,0.0277,0.0269,0.027,0.0271,0.0334,0.034,0.0344,0,0,0,0,0,0.0212,0.0241,0.0243,0.0251,0.0289,0.0314,0.0317,0.0326,0.0322,0.0335,0.0333,0.031,0.0307,0.0305,0.0301,0.0308,0.0269,0.027,0.0271,0.0332,0.0338,0.0344,0,0,0,0,0,0,0.0206,0.0245,0.0248,0.0286,0.0302,0.0316,0.0334,0.0333,0.0342,0.0344,0.0324,0.0322,0.0331,0.031,0.0308,0.0306,0.028,0.028,0.0328,0.0334,0.0339,0.0293,0.0277,0,0,0,0,0,0.0213,0.025,0.027,0.0301,0.0313,0.0322,0.0333,0.0339,0.0348,0.0352,0.0347,0.0336,0.033,0.0326,0.032,0.0321,0.0253,0.0319,0.0325,0.0329,0.0289,0.0188,0.0179,0.0274,0.0274,0.0274,0,0,0.0219,0.0245,0.0266,0.0303,0.0317,0.0345,0.0329,0.0355,0.0374,0.0346,0.0372,0.0359,0.0336,0.0345,0.0345,0.0329,0.0278,0.033,0.0335,0.029,0.0188,0.0178,0.0169,0.0275,0.0275,0.0275,0,0,0.0257,0.0274,0.032,0.0336,0.0365,0.0368,0.0378,0.0397,0.0402,0.0424,0.0404,0.0388,0.0398,0.0369,0.0358,0.038,0.0312,0.039,0.0375,0.028,0.027,0.026,0.0209,0.0194,0.0388,0.0388,0.0388,0,0.026,0.0315,0.0333,0.0374,0.0383,0.0382,0.0411,0.0424,0.0441,0.0433,0.0443,0.0403,0.04,0.0362,0.0379,0.0388,0.0332,0.036,0.0283,0.0272,0.0261,0.021,0.0193,0.0391,0.0391,0.0391,0.039,0,0.0332,0.0366,0.0391,0.0441,0.0454,0.0477,0.0489,0.0501,0.0501,0.0496,0.0469,0.0444,0.0395,0.0414,0.0409,0.0333,0.0322,0.0307,0.0264,0.0255,0.0204,0.0184,0.0396,0.0395,0.0394,0.0393,0,0,0.0353,0.0427,0.0434,0.0449,0.0482,0.0495,0.0523,0.0526,0.0519,0.0519,0.0474,0.0468,0.041,0.0387,0.0358,0.029,0.0205,0.0267,0.026,0.021,0.0013,0.0089,0.0076,0.017,0.0166,0.0163,0.0026,0,0.0393,0.0464,0.0493,0.0536,0.0554,0.0555,0.0577,0.0578,0.0559,0.0522,0.046,0.0408,0.0412,0.0362,0.0297,0.0213,0.0148,0.0244,0.0031,0.0025,0.0088,0.0053,0.015,0.0011,0.0006,0.0003,0.0001,0,0.0451,0.0478,0.0532,0.0554,0.0564,0.0602,0.0586,0.0595,0.0549,0.0517,0.043,0.0366,0.0251,0.025,0.0074,0.0131,0.0064,0.0013,0.0006,0.0023,0.0063,0.0009,-0.0035,-0.0033,-0.003,-0.0028,-0.0025,0,0.0433,0.0498,0.0531,0.0544,0.0583,0.0609,0.0619,0.0602,0.0576,0.047,0.0414,0.028,0.0185,0.0062,-0.0014,-0.0007,-0.0189,-0.0197,-0.0189,-0.0183,-0.024,-0.0229,-0.0344,-0.0344,-0.0343,-0.0343,-0.0343,0,0.0448,0.0469,0.0538,0.0553,0.0583,0.0607,0.0608,0.0597,0.0539,0.0501,0.0383,0.0304,0.0125,0.0022,-0.0056,-0.0163,-0.0232,-0.0222,-0.0233,-0.0198,-0.0181,-0.0251,-0.0238,-0.0348,-0.0347,-0.0346,-0.0345,0,0.0423,0.0473,0.0502,0.0559,0.0582,0.0596,0.0609,0.0598,0.0541,0.0469,0.0414,0.0274,0.0137,0.0018,-0.0169,-0.0209,-0.032,-0.033,-0.0252,-0.0251,-0.0248,-0.023,-0.0405,-0.0404,-0.0403,-0.0402,-0.0402,0,0.0417,0.0436,0.0496,0.052,0.056,0.0584,0.0608,0.0591,0.0572,0.0476,0.0443,0.0286,0.02,-0.0012,-0.0128,-0.0292,-0.0288,-0.0356,-0.0349,-0.0271,-0.0265,-0.0248,-0.0232,-0.04,-0.04,-0.04,-0.0399,0,0.0378,0.0411,0.0436,0.0493,0.0545,0.0567,0.0606,0.0576,0.0557,0.0513,0.0428,0.0303,0.0171,0.0004,-0.0102,-0.0208,-0.0334,-0.0348,-0.0352,-0.0346,-0.0267,-0.0258,-0.0243,-0.0396,-0.0396,-0.0397,-0.0397,0,0.0343,0.0354,0.041,0.0457,0.0515,0.0555,0.0561,0.0567,0.0542,0.047,0.0459,0.0311,0.0226,0.0052,-0.0037,-0.0144,-0.0193,-0.0241,-0.0252,-0.0257,-0.0151,-0.0025,-0.0119,0,0,0,0,0,0.0305,0.0328,0.0369,0.0431,0.049,0.0538,0.0572,0.0574,0.0569,0.0519,0.0486,0.038,0.0199,0.0109,0.0006,-0.0033,-0.0212,-0.0156,-0.0273,-0.0378,-0.0382,-0.0274,0,0,0,0,0,0,0.0283,0.0318,0.0354,0.0414,0.0453,0.0526,0.0549,0.0548,0.0515,0.0492,0.0391,0.0366,0.0184,0.0261,0.0007,-0.0025,-0.0111,-0.0233,-0.0235,-0.0376,-0.0379,-0.0382,-0.0272,0,0,0,0,0]}]]